Location: Pf�ffikon
(47.2015°N, 8.7809°E)
Time: 07:49:56
(UTC+00:00)

STARLINK-1318 - Pass Details

Date: 07 June 2020
Orbit: 548 x 551 km, 53.0° (Epoch: 12 July)

Event Time Altitude Azimuth Distance (km) Brightness Sun altitude
Rises 01:53:15 0° 277° (W) 2,715 6.9 -12.3°
Reaches altitude 10° 01:55:37 10° 286° (WNW) 1,822 6.1 -12.1°
Maximum altitude 01:59:29 37° 354° (N) 866 5.1 -11.7°
Drops below altitude 10° 02:03:21 10° 63° (ENE) 1,823 7.4 -11.3°
Sets 02:05:43 0° 72° (ENE) 2,716 8.2 -11.1°
